�������l�o���
Date,Time,MP-1(��Sv/h),MP-2(��Sv/h),MP-3(��Sv/h),MP-4(��Sv/h),MP-5(��Sv/h),MP-6(��Sv/h),MP-7(��Sv/h),MP-8(��Sv/h),����,����(m/s),���J
2023/08/12,00:00,0.536,0.805,0.494,0.998,0.723,0.320,0.573,0.535,�k��,6.0,��
2023/08/12,00:10,0.536,0.808,0.495,0.998,0.725,0.322,0.573,0.535,�k��,6.5,��
2023/08/12,00:20,0.535,0.804,0.494,0.998,0.723,0.322,0.574,0.534,�k��,6.4,��
2023/08/12,00:30,0.537,0.806,0.495,0.996,0.724,0.322,0.575,0.534,�k��,6.8,��
2023/08/12,00:40,0.536,0.807,0.494,0.997,0.725,0.322,0.575,0.533,�k�k��,7.5,�L
2023/08/12,00:50,0.537,0.805,0.494,0.997,0.723,0.324,0.574,0.533,�k��,7.7,�L
2023/08/12,01:00,0.536,0.806,0.495,0.997,0.725,0.322,0.574,0.533,�k��,7.7,�L
2023/08/12,01:10,0.534,0.804,0.496,0.999,0.724,0.322,0.574,0.534,�k�k��,7.4,�L
2023/08/12,01:20,0.534,0.805,0.494,0.996,0.723,0.321,0.574,0.534,�k�k��,7.2,�L
2023/08/12,01:30,0.534,0.803,0.495,0.998,0.723,0.322,0.576,0.534,�k��,7.7,�L
2023/08/12,01:40,0.533,0.803,0.494,0.996,0.721,0.322,0.574,0.534,�k�k��,6.5,�L
2023/08/12,01:50,0.531,0.798,0.491,0.994,0.719,0.321,0.573,0.533,�k�k��,5.9,�L
2023/08/12,02:00,0.526,0.788,0.487,0.988,0.713,0.318,0.571,0.531,�k�k��,6.6,�L
2023/08/12,02:10,0.522,0.781,0.485,0.979,0.704,0.317,0.569,0.530,�k�k��,6.4,�L
2023/08/12,02:20,0.519,0.780,0.483,0.971,0.701,0.315,0.567,0.528,�k�k��,5.8,�L
2023/08/12,02:30,0.516,0.774,0.482,0.969,0.700,0.316,0.565,0.527,�k��,4.3,�L
2023/08/12,02:40,0.518,0.773,0.481,0.962,0.698,0.315,0.563,0.527,�k�k��,6.0,�L
2023/08/12,02:50,0.518,0.775,0.481,0.964,0.698,0.315,0.564,0.526,�k��,6.4,�L
2023/08/12,03:00,0.519,0.778,0.482,0.966,0.699,0.314,0.564,0.527,�k��,6.9,�L
2023/08/12,03:10,0.520,0.779,0.481,0.962,0.699,0.315,0.562,0.527,�k��,6.6,�L
2023/08/12,03:20,0.521,0.776,0.482,0.965,0.699,0.316,0.564,0.529,�k��,6.7,�L
2023/08/12,03:30,0.520,0.778,0.480,0.965,0.700,0.315,0.564,0.528,�k�k��,6.4,�L
2023/08/12,03:40,0.520,0.774,0.481,0.964,0.696,0.316,0.563,0.528,�k�k��,6.5,�L
2023/08/12,03:50,0.518,0.776,0.481,0.962,0.697,0.316,0.564,0.527,�k�k��,7.0,�L
2023/08/12,04:00,0.518,0.774,0.480,0.962,0.696,0.315,0.564,0.526,�k�k��,6.7,�L
2023/08/12,04:10,0.519,0.777,0.482,0.963,0.699,0.315,0.565,0.528,�k�k��,7.1,�L
2023/08/12,04:20,0.520,0.777,0.483,0.964,0.699,0.314,0.564,0.530,�k�k��,6.8,�L
2023/08/12,04:30,0.518,0.778,0.482,0.964,0.699,0.317,0.565,0.528,�k�k��,6.9,��
2023/08/12,04:40,0.520,0.780,0.482,0.966,0.700,0.315,0.567,0.527,�k�k��,6.2,��
2023/08/12,04:50,0.520,0.778,0.483,0.967,0.698,0.315,0.564,0.528,�k�k��,5.8,��
2023/08/12,05:00,0.519,0.782,0.482,0.965,0.702,0.317,0.565,0.528,�k�k��,6.3,��
2023/08/12,05:10,0.520,0.781,0.483,0.967,0.702,0.316,0.566,0.529,�k�k��,7.3,��
2023/08/12,05:20,0.521,0.782,0.484,0.966,0.702,0.317,0.566,0.529,�k�k��,6.1,��
2023/08/12,05:30,0.522,0.783,0.485,0.969,0.703,0.316,0.565,0.529,�k��,5.2,��
2023/08/12,05:40,0.522,0.785,0.485,0.969,0.704,0.316,0.567,0.529,�k�k��,4.6,��
2023/08/12,05:50,0.522,0.784,0.485,0.970,0.703,0.317,0.566,0.529,�k�k��,5.1,��
2023/08/12,06:00,0.522,0.784,0.486,0.969,0.704,0.317,0.567,0.528,�k�k��,4.9,��
2023/08/12,06:10,0.523,0.788,0.487,0.968,0.703,0.317,0.567,0.530,�k�k��,4.7,�L
2023/08/12,06:20,0.522,0.784,0.486,0.969,0.703,0.317,0.568,0.531,�k��,4.5,�L
2023/08/12,06:30,0.523,0.786,0.485,0.968,0.704,0.317,0.568,0.528,�k��,5.0,�L
2023/08/12,06:40,0.523,0.785,0.485,0.971,0.703,0.318,0.567,0.528,�k�k��,4.2,��
2023/08/12,06:50,0.523,0.787,0.486,0.968,0.704,0.317,0.567,0.529,�k�k��,4.3,��
2023/08/12,07:00,0.524,0.787,0.486,0.968,0.705,0.318,0.569,0.529,�k��,3.6,��
2023/08/12,07:10,0.523,0.786,0.487,0.969,0.705,0.319,0.568,0.530,�k��,4.1,��
2023/08/12,07:20,0.523,0.790,0.486,0.970,0.705,0.319,0.567,0.530,�k��,3.5,��
2023/08/12,07:30,0.522,0.788,0.487,0.969,0.704,0.316,0.568,0.531,�k��,3.9,��
2023/08/12,07:40,0.526,0.789,0.487,0.972,0.705,0.318,0.569,0.531,�k��,1.7,��
2023/08/12,07:50,0.525,0.788,0.488,0.970,0.705,0.319,0.569,0.532,�k��,2.3,��
2023/08/12,08:00,0.524,0.789,0.488,0.969,0.705,0.318,0.569,0.530,���k��,2.8,��
2023/08/12,08:10,0.526,0.790,0.487,0.971,0.707,0.318,0.569,0.531,���k��,2.5,��
2023/08/12,08:20,0.526,0.790,0.487,0.972,0.706,0.318,0.570,0.532,���k��,2.0,��
2023/08/12,08:30,0.526,0.791,0.487,0.971,0.706,0.319,0.569,0.531,��,1.9,��
2023/08/12,08:40,0.526,0.791,0.488,0.970,0.707,0.319,0.570,0.532,���쐼,1.1,�L
2023/08/12,08:50,0.527,0.792,0.488,0.970,0.707,0.320,0.569,0.531,�쐼,0.6,�L
2023/08/12,09:00,0.530,0.790,0.489,0.973,0.707,0.320,0.571,0.531,�쐼,0.9,�L
2023/08/12,09:10,0.527,0.791,0.488,0.972,0.708,0.319,0.571,0.532,��,0.6,�L
2023/08/12,09:20,0.529,0.794,0.488,0.973,0.708,0.319,0.568,0.531,��,1.5,�L
2023/08/12,09:30,0.527,0.792,0.489,0.973,0.708,0.320,0.570,0.531,��쓌,2.6,�L
2023/08/12,09:40,0.526,0.792,0.488,0.973,0.707,0.319,0.570,0.532,��쓌,2.3,�L
2023/08/12,09:50,0.525,0.792,0.488,0.972,0.708,0.319,0.569,0.531,��쓌,2.6,�L
2023/08/12,10:00,0.527,0.793,0.488,0.971,0.709,0.320,0.570,0.531,��쓌,3.1,�L
2023/08/12,10:10,0.528,0.792,0.490,0.973,0.710,0.320,0.568,0.531,��쓌,3.5,�L
2023/08/12,10:20,0.528,0.790,0.489,0.973,0.710,0.321,0.569,0.531,��쓌,4.1,�L
2023/08/12,10:30,0.528,0.790,0.487,0.971,0.706,0.320,0.568,0.530,�쓌,6.3,�L
2023/08/12,10:40,0.528,0.790,0.486,0.967,0.702,0.319,0.563,0.527,��쓌,3.0,�L
2023/08/12,10:50,0.527,0.789,0.487,0.967,0.703,0.320,0.560,0.522,���쓌,1.9,�L
2023/08/12,11:00,0.529,0.789,0.487,0.969,0.703,0.319,0.561,0.521,���쓌,1.9,�L
2023/08/12,11:10,0.528,0.791,0.488,0.967,0.701,0.321,0.561,0.523,���쓌,2.0,�L
2023/08/12,11:20,0.526,0.790,0.486,0.967,0.703,0.318,0.562,0.525,�쓌,2.3,�L
2023/08/12,11:30,0.526,0.790,0.486,0.967,0.699,0.320,0.563,0.527,�쓌,2.3,�L
2023/08/12,11:40,0.525,0.790,0.485,0.968,0.701,0.318,0.561,0.526,��쓌,3.3,�L
2023/08/12,11:50,0.526,0.791,0.485,0.968,0.703,0.319,0.564,0.526,�쓌,2.6,�L
2023/08/12,12:00,0.527,0.791,0.485,0.968,0.702,0.319,0.563,0.527,��쓌,2.0,�L
2023/08/12,12:10,0.527,0.791,0.486,0.967,0.703,0.318,0.562,0.528,��쓌,1.7,�L
2023/08/12,12:20,0.527,0.791,0.485,0.970,0.704,0.319,0.564,0.527,��쓌,1.7,�L
2023/08/12,12:30,0.527,0.788,0.485,0.970,0.703,0.317,0.564,0.527,�쓌,2.0,�L
2023/08/12,12:40,0.528,0.793,0.486,0.966,0.703,0.317,0.563,0.525,��쓌,3.2,�L
2023/08/12,12:50,0.529,0.792,0.485,0.968,0.703,0.317,0.564,0.526,�쓌,3.7,�L
2023/08/12,13:00,0.527,0.791,0.486,0.968,0.704,0.318,0.564,0.525,�쓌,4.0,�L
2023/08/12,13:10,0.527,0.791,0.487,0.968,0.704,0.319,0.566,0.526,��쓌,4.5,�L
2023/08/12,13:20,0.528,0.793,0.485,0.972,0.705,0.319,0.565,0.525,�쓌,2.0,�L
2023/08/12,13:30,0.527,0.796,0.487,0.968,0.705,0.318,0.566,0.526,��쓌,4.6,�L
2023/08/12,13:40,0.528,0.792,0.488,0.969,0.706,0.318,0.567,0.527,��쓌,3.5,��
2023/08/12,13:50,0.528,0.794,0.487,0.970,0.707,0.319,0.566,0.526,��쓌,7.2,��
2023/08/12,14:00,0.528,0.794,0.486,0.971,0.707,0.319,0.565,0.526,��쓌,6.7,��
2023/08/12,14:10,0.527,0.793,0.487,0.970,0.706,0.319,0.564,0.527,��쓌,5.7,��
2023/08/12,14:20,0.528,0.797,0.487,0.970,0.706,0.318,0.566,0.527,��쓌,6.4,��
2023/08/12,14:30,0.530,0.794,0.489,0.970,0.707,0.318,0.567,0.526,��쓌,3.2,��
2023/08/12,14:40,0.528,0.795,0.488,0.970,0.708,0.317,0.566,0.526,��쓌,5.7,��
2023/08/12,14:50,0.528,0.797,0.488,0.970,0.710,0.317,0.566,0.527,��쓌,5.9,��
2023/08/12,15:00,0.529,0.796,0.489,0.973,0.709,0.317,0.566,0.527,��쓌,5.9,��
2023/08/12,15:10,0.529,0.797,0.489,0.970,0.711,0.318,0.566,0.526,�쓌,6.0,��
2023/08/12,15:20,0.529,0.794,0.490,0.970,0.711,0.318,0.567,0.527,��쓌,7.6,��
2023/08/12,15:30,0.528,0.796,0.489,0.969,0.709,0.318,0.567,0.526,��쓌,6.4,��
2023/08/12,15:40,0.529,0.796,0.489,0.970,0.712,0.318,0.568,0.527,��쓌,3.9,��
2023/08/12,15:50,0.529,0.796,0.490,0.970,0.711,0.318,0.566,0.528,��쓌,5.7,��
2023/08/12,16:00,0.529,0.796,0.490,0.972,0.710,0.318,0.566,0.527,�k,1.7,��
2023/08/12,16:10,0.531,0.797,0.490,0.971,0.710,0.316,0.567,0.528,�k,4.3,�L
2023/08/12,16:20,0.528,0.793,0.490,0.973,0.709,0.317,0.566,0.527,��,4.6,��
2023/08/12,16:30,0.528,0.792,0.490,0.971,0.710,0.318,0.566,0.527,��,3.3,��
2023/08/12,16:40,0.527,0.793,0.488,0.971,0.710,0.317,0.568,0.527,���쓌,2.3,�L
2023/08/12,16:50,0.530,0.795,0.490,0.974,0.710,0.318,0.569,0.527,�쓌,3.3,�L
2023/08/12,17:00,0.529,0.796,0.489,0.973,0.710,0.318,0.565,0.528,�쓌,3.1,��
2023/08/12,17:10,0.529,0.796,0.488,0.972,0.711,0.317,0.567,0.528,�쓌,2.6,��
2023/08/12,17:20,0.528,0.796,0.490,0.972,0.712,0.319,0.567,0.529,��쓌,2.6,��
2023/08/12,17:30,0.530,0.795,0.489,0.973,0.711,0.319,0.567,0.529,�쓌,2.3,��
2023/08/12,17:40,0.530,0.797,0.489,0.974,0.710,0.320,0.567,0.527,��쓌,2.6,��
2023/08/12,17:50,0.529,0.797,0.490,0.974,0.713,0.319,0.567,0.528,��쓌,3.1,��
2023/08/12,18:00,0.531,0.796,0.489,0.970,0.712,0.320,0.568,0.527,��쓌,3.1,��
2023/08/12,18:10,0.529,0.796,0.490,0.974,0.711,0.319,0.567,0.528,��쓌,2.5,��
2023/08/12,18:20,0.530,0.796,0.489,0.972,0.711,0.318,0.568,0.528,��쓌,3.3,��
2023/08/12,18:30,0.528,0.795,0.490,0.974,0.711,0.320,0.566,0.529,��쓌,3.9,��
2023/08/12,18:40,0.527,0.795,0.491,0.973,0.709,0.319,0.567,0.527,��쓌,2.9,��
2023/08/12,18:50,0.530,0.799,0.490,0.972,0.712,0.319,0.567,0.529,��쓌,2.3,��
2023/08/12,19:00,0.528,0.798,0.490,0.975,0.712,0.319,0.567,0.527,��쓌,3.0,��
2023/08/12,19:10,0.530,0.797,0.490,0.973,0.711,0.320,0.568,0.528,��,4.1,��
2023/08/12,19:20,0.528,0.796,0.490,0.974,0.711,0.320,0.568,0.528,��,2.6,��
2023/08/12,19:30,0.529,0.799,0.491,0.973,0.713,0.320,0.567,0.530,��쓌,2.3,��
2023/08/12,19:40,0.529,0.797,0.491,0.974,0.710,0.320,0.568,0.528,��,2.0,��
2023/08/12,19:50,0.528,0.796,0.490,0.974,0.709,0.320,0.569,0.529,��,4.0,��
2023/08/12,20:00,0.528,0.794,0.490,0.973,0.709,0.320,0.569,0.529,��,3.1,��
2023/08/12,20:10,0.527,0.796,0.491,0.972,0.709,0.320,0.568,0.528,��,2.6,��
2023/08/12,20:20,0.529,0.798,0.491,0.973,0.711,0.320,0.568,0.528,��,4.2,��
2023/08/12,20:30,0.530,0.797,0.490,0.971,0.710,0.321,0.567,0.530,��,3.3,��
2023/08/12,20:40,0.530,0.797,0.491,0.972,0.711,0.319,0.568,0.528,��,3.1,��
2023/08/12,20:50,0.528,0.797,0.490,0.972,0.712,0.319,0.567,0.529,��,2.3,��
2023/08/12,21:00,0.531,0.798,0.490,0.972,0.710,0.319,0.567,0.530,-,CALM,��
2023/08/12,21:10,0.529,0.800,0.490,0.973,0.711,0.319,0.567,0.530,�k��,1.1,��
2023/08/12,21:20,0.530,0.798,0.490,0.975,0.712,0.319,0.569,0.529,��쐼,1.5,��
2023/08/12,21:30,0.531,0.796,0.490,0.973,0.709,0.319,0.569,0.528,���k��,1.2,��
2023/08/12,21:40,0.528,0.796,0.489,0.973,0.712,0.319,0.569,0.527,��,2.3,��
2023/08/12,21:50,0.530,0.795,0.490,0.976,0.711,0.319,0.569,0.529,��,1.1,��
2023/08/12,22:00,0.528,0.797,0.489,0.976,0.711,0.319,0.568,0.529,��,1.2,��
2023/08/12,22:10,0.530,0.798,0.491,0.974,0.712,0.319,0.568,0.529,��,3.4,��
2023/08/12,22:20,0.529,0.797,0.490,0.976,0.712,0.319,0.567,0.529,��쐼,3.5,��
2023/08/12,22:30,0.531,0.797,0.490,0.974,0.710,0.319,0.568,0.530,��쐼,3.3,��
2023/08/12,22:40,0.530,0.797,0.490,0.973,0.712,0.321,0.568,0.530,��,3.3,��
2023/08/12,22:50,0.529,0.798,0.492,0.977,0.711,0.319,0.569,0.529,��,3.6,��
2023/08/12,23:00,0.530,0.799,0.491,0.978,0.713,0.319,0.569,0.529,��,3.3,��
2023/08/12,23:10,0.530,0.798,0.491,0.976,0.712,0.320,0.569,0.531,��쐼,3.0,��
2023/08/12,23:20,0.530,0.797,0.491,0.975,0.713,0.320,0.569,0.530,��,3.4,��
2023/08/12,23:30,0.530,0.798,0.490,0.978,0.711,0.320,0.568,0.529,��,2.9,��
2023/08/12,23:40,0.532,0.798,0.492,0.979,0.713,0.321,0.569,0.530,��,2.6,��
2023/08/12,23:50,0.531,0.797,0.492,0.977,0.715,0.320,0.569,0.529,��,3.4,��
